RH
50 53 54 58 59 54 54 54 51 42 41 40 44 49 51 49 48 47 43 43 39 38 42 40 31 31 28 25 25 27 27 34 49 62 69 74 80 89 70 73 80 80 85 86
57 53 58 69 66 60 59 56 53 50 43 39 46 43 43 47 47 44 44 41 36 38 41 39 37 35 34 35 33 31 35 44 50 53 56 59 63 63 60 68 73 77 82 86
63 56 67 76 64 62 60 55 53 53 46 43 43 45 43 43 41 38 39 41 38 40 42 41 36 33 32 35 35 38 47 51 51 48 50 53 54 58 61 69 73 74 75 78
77 64 80 63 58 60 60 55 54 47 47 45 41 39 40 39 39 39 40 40 42 41 39 39 37 32 34 36 40 46 49 48 44 46 49 50 53 56 59 62 67 71 75 76
92 79 59 57 60 59 60 60 52 51 50 46 47 44 42 38 40 40 40 40 39 40 39 38 30 30 34 36 37 39 42 43 51 53 52 53 54 58 62 65 67 68 71 78
98 93 80 58 58 59 59 62 53 57 51 47 47 52 46 40 36 38 37 40 41 37 36 32 29 32 38 39 41 42 45 49 50 47 48 50 53 57 58 57 60 60 61 64
90 97 85 64 66 61 70 64 54 54 54 49 50 50 46 42 40 40 38 38 38 36 32 31 33 35 38 41 43 47 49 47 48 48 49 48 51 50 50 55 65 67 69 79
87 97 92 71 70 69 67 61 58 55 50 53 50 47 44 44 43 41 40 41 41 39 40 42 44 44 44 45 45 47 48 49 50 51 52 54 55 57 61 67 72 82 89 89
69 71 68 67 75 67 67 65 61 58 53 47 47 49 48 51 49 46 46 47 48 46 48 50 51 50 49 51 53 55 58 57 57 56 62 67 69 69 76 82 88 90 91 96
63 56 62 65 70 73 72 69 64 59 58 57 55 55 54 56 55 55 54 54 54 54 54 57 58 57 57 62 65 67 68 67 65 69 73 77 81 86 88 91 93 97 98 97
62 57 60 62 65 66 67 67 68 67 65 64 63 64 62 63 65 63 62 64 66 64 65 67 69 69 70 72 72 72 72 72 76 80 83 87 89 91 94 97 97 97 94 92
57 48 61 60 65 66 61 60 63 68 73 68 66 65 68 69 67 68 67 71 73 74 73 71 71 74 78 80 83 87 88 87 86 90 92 93 96 98 97 97 97 95 89 88
43 53 61 66 73 68 64 62 61 65 68 74 72 70 73 68 66 70 76 79 79 78 77 73 75 80 85 87 90 92 95 95 96 96 97 97 97 97 97 97 96 97 97 96
50 57 65 63 70 73 72 71 69 70 72 74 75 77 75 74 76 79 80 80 76 75 78 80 84 91 93 93 94 95 95 95 96 97 97 97 97 96 96 97 97 97 97 97
56 54 57 66 70 65 65 66 68 67 69 74 75 76 72 70 70 71 69 69 71 77 79 83 91 95 96 96 96 96 97 97 96 96 96 96 96 96 96 96 96 96 97 98
59 58 59 66 66 66 66 65 58 61 67 69 69 68 70 72 68 67 71 78 82 84 89 93 95 95 95 96 96 96 96 96 96 96 96 96 96 96 96 96 96 96 97 98
63 68 63 60 59 58 59 59 55 58 60 65 69 71 70 68 69 75 79 85 91 93 97 96 96 96 96 96 96 95 96 96 96 95 95 94 94 94 94 95 94 94 95 93
64 63 62 60 57 59 59 54 55 59 63 64 66 68 74 79 82 87 89 89 94 97 97 97 96 96 96 95 95 94 93 92 89 87 86 87 87 88 86 84 80 73 69 65
60 59 65 65 67 64 62 62 64 67 73 78 76 79 83 82 82 85 92 97 97 97 96 97 96 94 93 91 88 85 83 83 85 85 84 79 73 66 62 57 54 51 47 43
84 83 86 86 90 80 75 72 71 70 70 70 70 69 67 69 75 87 94 96 96 96 96 95 92 90 89 88 86 84 78 72 65 58 50 43 37 34 32 32 31 32 34 37
99 93 90 90 87 84 80 75 75 73 73 70 68 71 72 77 96 97 96 96 96 94 91 90 89 85 78 70 60 51 41 34 31 30 29 29 28 28 29 31 33 35 36 38
99 93 92 94 86 77 71 69 72 74 81 91 94 96 97 97 96 96 95 92 93 90 83 75 65 54 43 35 31 30 28 27 26 25 25 25 26 28 30 33 35 38 40 42
93 90 89 86 80 75 75 84 91 95 97 97 97 97 96 95 93 89 86 82 74 64 51 41 35 31 29 26 24 23 23 24 24 23 24 26 28 30 32 35 38 41 44 47
88 84 79 79 81 86 88 93 97 97 96 96 96 93 88 83 78 71 60 51 44 39 34 31 27 25 22 21 20 19 18 19 20 22 24 26 29 31 35 38 40 44 48 51
85 83 81 83 89 95 97 97 96 95 92 89 84 79 71 58 47 45 42 38 35 31 27 26 24 21 19 17 16 15 16 18 20 23 25 28 32 35 38 42 45 48 51 55
87 88 91 96 96 96 96 93 89 86 80 72 60 50 45 43 40 38 35 32 29 26 23 21 20 18 15 14 15 16 18 21 24 27 30 33 36 39 43 46 50 54 58 61
97 97 96 96 95 91 87 81 73 60 49 46 44 44 42 39 36 32 29 26 23 21 20 18 15 14 15 16 18 20 23 26 29 32 35 38 41 45 49 53 56 60 64 69